Location: Miami, Florida
(25.6830°N, 80.1700°W)
Time: 07:48:04
(UTC-04:00)

ISS - Pass Details

Date: 16 November 2017
Orbit: 402 x 407 km, 51.6° (Epoch: 21 November)

Event Time Altitude Azimuth Distance (km) Brightness Sun altitude
Exits shadow 06:49:04 - 346° (NNW) 2,077 -0.5 -11.6°
Reaches altitude 10° 06:51:30 10° 15° (NNE) 1,448 -1.0 -11.1°
Maximum altitude 06:52:51 12° 39° (NE) 1,330 -0.9 -10.8°
Drops below altitude 10° 06:54:12 10° 64° (ENE) 1,446 -0.3 -10.5°
Sets 06:57:19 0° 97° (E) 2,302 2.1 -9.8°
